DW1970 Weather Reports


Display with metric or nautical units.
time (UTC)temp
F
wind
direction
speed
MPH
gust
MPH
rain 1hr
in
rain 24hr
in
rain mn
in
humidity
%
barometer
mb
20260902031509 61 360 0.0 0.0 0.00 0.03 0.03 93 1016.3
20260902030009 61 360 0.0 0.0 0.00 0.03 0.03 93 1016.4
20260902024509 61 360 0.0 0.0 0.00 0.03 0.03 93 1016.1
20260902023008 61 360 0.0 1.0 0.00 0.03 0.03 92 1015.8
20260902021507 61 354 0.0 1.0 0.00 0.03 0.03 93 1016.1
20260902020007 61 348 0.0 0.0 0.00 0.03 0.03 92 1016.0
20260902014507 61 356 0.0 0.0 0.00 0.03 0.03 92 1016.1
20260902013006 62 334 0.0 0.0 0.00 0.03 0.03 91 1016.3
20260902011514 62 343 0.0 0.0 0.00 0.03 0.03 91 1016.2
20260902010009 62 325 0.0 0.0 0.00 0.03 0.03 90 1016.3
20260902004506 63 304 0.0 0.0 0.00 0.03 0.03 89 1016.3
20260902003005 62 312 0.0 0.0 0.00 0.03 0.03 90 1016.3
20260902001505 62 310 0.0 0.0 0.00 0.03 0.03 88 1016.3
20260902000010 63 290 0.0 0.0 0.00 0.03 0.03 87 1016.3
20260901234505 63 292 0.0 0.0 0.00 0.03 0.03 87 1016.3
20260901233005 64 294 0.0 0.0 0.00 0.03 0.03 83 1016.4
20260901231503 65 291 0.0 0.0 0.00 0.03 0.03 82 1016.4
20260901230002 65 257 0.0 0.0 0.00 0.03 0.03 83 1016.3
20260901224502 66 277 0.0 5.0 0.00 0.03 0.03 81 1016.3
20260901223100 65 318 0.0 4.0 0.00 0.03 0.03 83 1016.4
20260901221609 65 311 0.0 3.0 0.00 0.03 0.03 84 1016.8
20260901220108 65 337 0.0 1.0 0.00 0.03 0.03 85 1016.8
20260901214559 64 311 0.0 1.0 0.00 0.03 0.03 86 1016.8
20260901213053 64 307 0.0 2.0 0.00 0.03 0.03 90 1016.7
20260901211553 62 287 0.0 0.0 0.00 0.03 0.03 92 1016.7
20260901210052 63 253 0.0 0.0 0.00 0.03 0.03 89 1016.6
20260901204551 64 272 0.0 0.0 0.00 0.03 0.03 89 1016.6
20260901203055 64 305 0.0 0.0 0.00 0.03 0.03 91 1016.4
20260901201546 62 298 0.0 0.0 0.00 0.03 0.03 93 1016.6
20260901200046 62 253 0.0 0.0 0.00 0.03 0.03 94 1016.9
20260901194546 62 244 0.0 0.0 0.00 0.03 0.03 94 1016.9
20260901193046 62 267 0.0 0.0 0.00 0.03 0.03 95 1016.8
20260901191556 61 239 0.0 2.0 0.00 0.03 0.03 96 1016.7
20260901190040 61 250 0.0 1.0 0.00 0.03 0.03 96 1016.7
20260901184545 61 296 0.0 2.0 0.00 0.03 0.03 97 1016.9
20260901183047 62 294 0.0 0.0 0.00 0.03 0.03 98 1016.7
20260901181535 60 234 0.0 0.0 0.00 0.03 0.03 97 1016.7
20260901180035 60 233 0.0 0.0 0.00 0.03 0.03 97 1016.6
20260901174536 60 283 0.0 0.0 0.00 0.03 0.03 97 1016.6
20260901173035 60 230 0.0 0.0 0.00 0.03 0.03 97 1016.3
20260901171531 60 190 0.0 0.0 0.01 0.03 0.03 97 1016.0
20260901170028 59 175 0.0 0.0 0.01 0.03 0.03 98 1016.1
20260901164539 59 175 0.0 0.0 0.01 0.03 0.03 97 1016.0
20260901163024 58 185 0.0 0.0 0.01 0.03 0.03 97 1016.0
20260901161543 58 326 0.0 1.0 0.00 0.02 0.02 97 1016.0
20260901160022 58 272 0.0 0.0 0.00 0.02 0.02 97 1015.8
20260901154521 58 272 0.0 0.0 0.00 0.02 0.02 97 1015.8
20260901153021 58 272 0.0 0.0 0.00 0.02 0.02 98 1015.6
20260901151520 57 272 0.0 0.0 0.00 0.02 0.02 97 1015.4
20260901150028 57 272 0.0 0.0 0.00 0.02 0.02 97 1015.2
20260901144528 57 262 0.0 0.0 0.00 0.02 0.02 97 1015.1
20260901143013 57 12 0.0 0.0 0.00 0.02 0.02 97 1014.8
20260901141514 57 19 0.0 0.0 0.00 0.02 0.02 97 1014.6
20260901140010 57 18 0.0 0.0 0.01 0.02 0.02 97 1014.4
20260901134509 57 16 0.0 0.0 0.01 0.02 0.02 97 1014.3
20260901133008 57 350 0.0 0.0 0.01 0.02 0.02 97 1014.2
20260901131507 57 324 0.0 0.0 0.01 0.02 0.02 97 1014.2
20260901130007 57 357 0.0 0.0 0.00 0.01 0.01 97 1014.1
20260901124558 57 357 0.0 0.0 0.00 0.01 0.01 97 1013.9
20260901123057 57 357 0.0 0.0 0.00 0.01 0.01 97 1013.9
20260901121556 57 357 0.0 0.0 0.00 0.01 0.01 97 1013.7
20260901120056 58 357 0.0 0.0 0.00 0.01 0.01 97 1013.7
20260901114637 58 1 0.0 0.0 0.00 0.01 0.01 97 1013.7
20260901113057 58 5 0.0 0.0 0.00 0.01 0.01 97 1013.6
20260901111554 58 20 0.0 0.0 0.00 0.01 0.01 97 1013.7
20260901110054 57 31 0.0 1.0 0.00 0.01 0.01 97 1013.8
20260901104551 57 6 0.0 0.0 0.00 0.01 0.01 97 1014.1
20260901103049 57 2 0.0 0.0 0.01 0.01 0.01 97 1014.0
20260901101550 57 2 0.0 0.0 0.01 0.01 0.01 97 1014.0
20260901100054 57 358 0.0 0.0 0.01 0.01 0.01 97 1014.0
20260901094548 57 340 0.0 0.0 0.01 0.01 0.01 97 1013.9
20260901093046 57 345 0.0 0.0 0.00 0.00 0.00 97 1013.8
20260901091545 57 21 0.0 0.0 0.00 0.00 0.00 97 1013.9
20260901090049 57 16 0.0 0.0 0.00 0.00 0.00 97 1013.8
20260901084550 57 5 0.0 0.0 0.00 0.00 0.00 97 1013.8
20260901083043 56 357 0.0 0.0 0.00 0.00 0.00 97 1013.8
20260901081541 56 19 0.0 0.0 0.00 0.00 0.00 96 1013.6
20260901080041 56 14 0.0 0.0 0.00 0.00 0.00 96 1013.5
20260901074546 56 18 0.0 0.0 0.00 0.00 0.00 96 1013.5
20260901073039 56 358 0.0 0.0 0.00 0.00 0.00 96 1013.7
20260901071538 56 23 0.0 0.0 0.00 0.00 0.00 96 1013.5
20260901070042 57 16 0.0 0.0 0.00 0.00 0.00 96 1013.5
20260901064535 57 6 0.0 2.0 0.00 0.00 0.00 96 1013.6
20260901063035 57 15 0.0 2.0 0.00 0.00 0.00 96 1013.6
20260901061535 57 17 0.0 1.0 0.00 0.00 0.00 96 1013.5
20260901060034 57 18 0.0 6.0 0.00 0.00 0.00 96 1013.7
20260901054534 57 2 0.0 8.0 0.00 0.00 0.00 96 1013.9
20260901053036 57 356 0.0 2.0 0.00 0.00 0.00 95 1013.8
20260901051536 57 348 0.0 5.0 0.00 0.00 0.00 96 1013.9
20260901050032 57 23 0.0 1.0 0.00 0.00 0.00 95 1013.8
20260901044549 57 333 0.0 0.0 0.00 0.00 0.00 95 1013.8
20260901043031 57 19 0.0 3.0 0.00 0.00 0.00 95 1013.6
20260901041532 57 327 0.0 2.0 0.00 0.00 0.00 95 1013.5
20260901040033 57 346 0.0 6.0 0.00 0.00 0.00 95 1013.4
20260901034535 58 358 0.0 1.0 0.00 0.00 0.00 95 1013.3
20260901033049 58 346 0.0 2.0 0.00 0.00 0.00 95 1013.2